ATLAS CENTAUR 2 DEB, 3741

Orbit data source: Space-Track

ATLAS CENTAUR 2 DEB, 3741 is space debris in LEO originally from a launch on Wed, 27 Nov 1963 UTC launched from the Air Force Eastern Test Range (AFETR). Debris objects in space refer to the collection of defunct objects orbiting the Earth. Examples of debris include non-operational satellites, rocket bodies, and fragments generated from explosions, collisions, or faulty payload assembly.

Loading next visibility...
Identifier
3741, 1963-047L
Orbit
LEO
Country
Flag of USUS
Related business
Manufacturer
Unknown
Mission
Spacecraft
Bus & Motor
Unknown
Mass
Unknown
Launch date (UTC)
1963-11-27 (62 years ago)
Launch vehicle
Unknown
Launch site
Air Force Eastern Test Range (AFETR)
Object type
Payload
Rocket body
Debris
Shape & HBR
Unknown shape, 0.1 m
Radar Cross Section
Small (<0.1 m²)

Expand to show TLE details & history
Last TLE update: 3 days ago

TLE from 3 days ago
0 ATLAS CENTAUR 2 DEB
1  3741U 63047L   25300.24853100  .00014360  00000-0  29006-2 0  9991
2  3741  29.8806 308.2210 0247144 305.7974  51.9888 14.42753081879089
Epoch: 2025-10-27T05:57Z
TLE epoch observation values (Epoch: 2025-10-27T05:57:53.078Z)
Latitude
0.00001°
Longitude
-177.10324°
Altitude
642.181 km
Speed
7.595 km/s
True Right ascension
20h 32m 53s
True Declination
0° 00' 00"
Sunlit
Object was in daylight at epoch
Visualization orbit readout
Latitude
Unknown
Longitude
Unknown
Altitude
Unknown
Speed
Unknown
Apparent Right ascension
Unknown
Apparent Declination
Unknown
Sunlit
N/A
Visualization observer readout
Local Sidereal Time
16:01:37
Azimuth
Unknown
Elevation
Unknown
Doppler factor
Unknown
Orbital elements
Apogee altitude
929.554 km
Perigee altitude
577.056 km
Semi-major axis
7,131.442 km
Eccentricity
0.02471
Inclination
29.8806°
RAAN
308.221°
Arg. of periapsis
305.7974°
True anomaly
54.26279°
Mean anomaly
51.9888°
Eccentric anomaly
53.1215°
Mean motion
3.60394 °/min
Orbital period
99.89 mins
BSTAR
0.0029006
Loading maneuver chart data...
Computing Atmospheric mass density...

Documentation

Showing up to 5 results
|